TimePST,TemperatureF,Dew PointF,Humidity,Sea Level PressureIn,VisibilityMPH,Wind Direction,Wind SpeedMPH,Gust SpeedMPH,PrecipitationIn,Events,Conditions,WindDirDegrees,DateUTC
12:53 AM,53.1,53.1,100,30.15,6.0,Calm,Calm,-,N/A,,Overcast,0,2012-11-07 08:53:00
1:53 AM,54.0,53.1,97,30.15,6.0,North,4.6,-,N/A,,Overcast,360,2012-11-07 09:53:00
2:43 AM,53.6,53.6,100,30.14,10.0,North,8.1,-,N/A,,Overcast,350,2012-11-07 10:43:00
2:53 AM,54.0,53.1,97,30.15,10.0,North,5.8,-,N/A,,Overcast,360,2012-11-07 10:53:00
3:16 AM,53.6,53.6,100,30.13,5.0,North,4.6,-,N/A,,Overcast,350,2012-11-07 11:16:00
3:44 AM,53.6,53.6,100,30.13,2.5,North,9.2,-,N/A,,Overcast,350,2012-11-07 11:44:00
3:50 AM,53.6,53.6,100,30.13,3.0,North,9.2,-,N/A,,Overcast,350,2012-11-07 11:50:00
3:53 AM,53.1,53.1,100,30.15,4.0,North,9.2,-,N/A,,Overcast,350,2012-11-07 11:53:00
4:00 AM,53.6,53.6,100,30.14,4.0,North,10.4,-,N/A,,Overcast,350,2012-11-07 12:00:00
4:08 AM,53.6,51.8,94,30.14,6.0,North,11.5,-,N/A,,Overcast,360,2012-11-07 12:08:00
4:53 AM,53.1,51.1,93,30.16,10.0,NNE,4.6,-,N/A,,Overcast,20,2012-11-07 12:53:00
5:01 AM,53.6,51.8,94,30.14,10.0,Calm,Calm,-,N/A,,Overcast,0,2012-11-07 13:01:00
5:53 AM,52.0,50.0,93,30.16,10.0,NNW,3.5,-,N/A,,Mostly Cloudy,340,2012-11-07 13:53:00
6:53 AM,53.1,50.0,89,30.16,10.0,North,8.1,-,N/A,,Overcast,360,2012-11-07 14:53:00
7:02 AM,53.6,50.0,88,30.15,10.0,North,6.9,-,N/A,,Overcast,10,2012-11-07 15:02:00
7:29 AM,53.6,50.0,88,30.15,10.0,North,8.1,-,N/A,,Overcast,350,2012-11-07 15:29:00
7:53 AM,53.1,48.9,86,30.17,10.0,North,6.9,-,N/A,,Overcast,360,2012-11-07 15:53:00
8:53 AM,54.0,48.9,83,30.16,10.0,North,5.8,-,N/A,,Overcast,360,2012-11-07 16:53:00
9:53 AM,55.9,48.0,75,30.15,10.0,North,10.4,-,N/A,,Mostly Cloudy,350,2012-11-07 17:53:00
10:02 AM,57.2,48.2,72,30.13,10.0,North,9.2,-,N/A,,Mostly Cloudy,360,2012-11-07 18:02:00
10:53 AM,57.0,46.9,69,30.14,10.0,NNW,11.5,-,N/A,,Scattered Clouds,340,2012-11-07 18:53:00
11:53 AM,57.0,46.9,69,30.13,10.0,NNW,15.0,-,N/A,,Clear,330,2012-11-07 19:53:00
12:53 PM,57.0,46.9,69,30.11,10.0,NNW,16.1,-,N/A,,Clear,330,2012-11-07 20:53:00
1:53 PM,57.0,48.0,72,30.11,10.0,NNW,16.1,-,N/A,,Clear,330,2012-11-07 21:53:00
2:53 PM,55.9,46.9,72,30.10,10.0,NNW,11.5,-,N/A,,Mostly Cloudy,340,2012-11-07 22:53:00
3:53 PM,55.9,46.0,69,30.09,10.0,North,11.5,-,N/A,,Overcast,350,2012-11-07 23:53:00
4:53 PM,53.1,44.1,71,30.09,10.0,North,10.4,-,N/A,,Scattered Clouds,360,2012-11-08 00:53:00
5:53 PM,50.0,44.1,80,30.08,10.0,NNE,3.5,-,N/A,,Clear,20,2012-11-08 01:53:00
6:53 PM,48.9,46.0,90,30.07,9.0,Calm,Calm,-,0.00,Rain,Light Rain,0,2012-11-08 02:53:00
7:06 PM,48.2,46.4,93,30.04,10.0,Calm,Calm,-,0.00,,Overcast,0,2012-11-08 03:06:00
7:36 PM,51.8,46.4,82,30.04,10.0,NNE,3.5,-,0.00,,Overcast,30,2012-11-08 03:36:00
7:45 PM,51.8,46.4,82,30.04,10.0,NNE,3.5,-,0.00,,Overcast,30,2012-11-08 03:45:00
7:53 PM,51.1,46.0,83,30.06,10.0,NNE,3.5,-,0.00,,Overcast,20,2012-11-08 03:53:00
8:45 PM,51.8,46.4,82,30.03,6.0,NE,3.5,-,0.01,Rain,Light Rain,40,2012-11-08 04:45:00
8:53 PM,50.0,46.9,89,30.04,9.0,NE,3.5,-,0.01,Rain,Light Rain,50,2012-11-08 04:53:00
9:32 PM,50.0,46.4,87,30.02,10.0,Calm,Calm,-,0.00,,Overcast,0,2012-11-08 05:32:00
9:53 PM,50.0,46.0,86,30.03,10.0,North,5.8,-,0.00,,Overcast,360,2012-11-08 05:53:00
10:53 PM,48.9,45.0,86,30.01,10.0,North,4.6,-,N/A,,Overcast,10,2012-11-08 06:53:00
11:53 PM,48.9,44.1,83,30.00,10.0,Calm,Calm,-,0.00,Rain,Light Rain,0,2012-11-08 07:53:00